Time,TemperatureF,DewpointF,PressureIn,WindDirection,WindDirectionDegrees,WindSpeedMPH,WindSpeedGustMPH,Humidity,HourlyPrecipIn,Conditions,Clouds,dailyrainin,SoftwareType,DateUTC
2013-08-07 00:06:00,85.5,67.0,29.75,SSE,151,3.0,8.0,54,0.00,,,0.00,weatherlink.com 1.10,2013-08-07 05:06:00,
2013-08-07 00:21:00,85.2,67.0,29.75,South,170,5.0,8.0,54,0.00,,,0.00,weatherlink.com 1.10,2013-08-07 05:21:00,
2013-08-07 00:36:00,85.1,67.0,29.75,SSE,165,2.0,8.0,54,0.00,,,0.00,weatherlink.com 1.10,2013-08-07 05:36:00,
2013-08-07 00:51:00,85.2,67.0,29.74,South,171,1.0,8.0,54,0.00,,,0.00,weatherlink.com 1.10,2013-08-07 05:51:00,
2013-08-07 01:06:00,85.7,66.0,29.74,South,173,1.0,8.0,52,0.00,,,0.00,weatherlink.com 1.10,2013-08-07 06:06:00,
2013-08-07 01:21:00,85.3,66.0,29.74,South,170,3.0,6.0,53,0.00,,,0.00,weatherlink.com 1.10,2013-08-07 06:21:00,
2013-08-07 01:36:00,85.0,66.0,29.73,SSE,161,5.0,8.0,53,0.00,,,0.00,weatherlink.com 1.10,2013-08-07 06:36:00,
2013-08-07 01:51:00,84.7,66.0,29.73,SSE,165,3.0,4.0,54,0.00,,,0.00,weatherlink.com 1.10,2013-08-07 06:51:00,
2013-08-07 02:06:00,84.9,66.0,29.73,South,187,3.0,8.0,53,0.00,,,0.00,weatherlink.com 1.10,2013-08-07 07:06:00,
2013-08-07 02:21:00,85.4,66.0,29.73,SSE,149,4.0,9.0,53,0.00,,,0.00,weatherlink.com 1.10,2013-08-07 07:21:00,
2013-08-07 02:36:00,85.2,66.0,29.73,SSW,194,4.0,9.0,53,0.00,,,0.00,weatherlink.com 1.10,2013-08-07 07:36:00,
2013-08-07 02:51:00,85.5,66.0,29.73,South,189,6.0,8.0,52,0.00,,,0.00,weatherlink.com 1.10,2013-08-07 07:51:00,
2013-08-07 03:06:00,86.0,66.0,29.73,SSW,200,4.0,15.0,52,0.00,,,0.00,weatherlink.com 1.10,2013-08-07 08:06:00,
2013-08-07 03:21:00,85.9,66.0,29.73,South,190,3.0,12.0,52,0.00,,,0.00,weatherlink.com 1.10,2013-08-07 08:21:00,
2013-08-07 03:36:00,85.4,66.0,29.73,SSE,154,3.0,14.0,53,0.00,,,0.00,weatherlink.com 1.10,2013-08-07 08:36:00,
2013-08-07 03:51:00,85.0,66.0,29.72,SSW,199,4.0,10.0,54,0.00,,,0.00,weatherlink.com 1.10,2013-08-07 08:51:00,
2013-08-07 04:06:00,84.6,67.0,29.73,South,188,6.0,11.0,55,0.00,,,0.00,weatherlink.com 1.10,2013-08-07 09:06:00,
2013-08-07 04:23:00,84.0,67.0,29.72,SSW,212,4.0,12.0,57,0.00,,,0.00,weatherlink.com 1.10,2013-08-07 09:23:00,
2013-08-07 04:37:00,83.4,67.0,29.71,South,189,0.0,10.0,59,0.00,,,0.00,weatherlink.com 1.10,2013-08-07 09:37:00,
2013-08-07 04:52:00,82.8,67.0,29.71,SSE,167,2.0,12.0,60,0.00,,,0.00,weatherlink.com 1.10,2013-08-07 09:52:00,
2013-08-07 05:07:00,82.4,68.0,29.71,SSE,160,4.0,12.0,62,0.00,,,0.00,weatherlink.com 1.10,2013-08-07 10:07:00,
2013-08-07 05:22:00,82.1,68.0,29.71,South,170,2.0,9.0,63,0.00,,,0.00,weatherlink.com 1.10,2013-08-07 10:22:00,
2013-08-07 05:37:00,81.9,69.0,29.71,South,175,4.0,11.0,64,0.00,,,0.00,weatherlink.com 1.10,2013-08-07 10:37:00,
2013-08-07 05:52:00,81.9,69.0,29.71,SE,145,5.0,12.0,65,0.00,,,0.00,weatherlink.com 1.10,2013-08-07 10:52:00,
2013-08-07 06:07:00,81.7,69.0,29.71,South,169,5.0,10.0,66,0.00,,,0.00,weatherlink.com 1.10,2013-08-07 11:07:00,
2013-08-07 06:22:00,81.5,70.0,29.72,SSW,196,4.0,12.0,67,0.00,,,0.00,weatherlink.com 1.10,2013-08-07 11:22:00,
2013-08-07 06:37:00,81.2,70.0,29.73,South,185,6.0,11.0,69,0.00,,,0.00,weatherlink.com 1.10,2013-08-07 11:37:00,
2013-08-07 06:52:00,80.9,70.0,29.74,SSE,159,0.0,9.0,70,0.00,,,0.00,weatherlink.com 1.10,2013-08-07 11:52:00,
2013-08-07 07:07:00,80.8,71.0,29.75,SSE,158,0.0,4.0,71,0.00,,,0.00,weatherlink.com 1.10,2013-08-07 12:07:00,
2013-08-07 07:22:00,81.1,71.0,29.75,SSE,161,3.0,6.0,71,0.00,,,0.00,weatherlink.com 1.10,2013-08-07 12:22:00,
2013-08-07 07:37:00,81.5,71.0,29.76,SSW,200,5.0,9.0,71,0.00,,,0.00,weatherlink.com 1.10,2013-08-07 12:37:00,
2013-08-07 07:52:00,81.4,71.0,29.76,South,188,1.0,10.0,71,0.00,,,0.00,weatherlink.com 1.10,2013-08-07 12:52:00,
2013-08-07 08:07:00,81.2,71.0,29.77,South,169,0.0,5.0,72,0.00,,,0.00,weatherlink.com 1.10,2013-08-07 13:07:00,
2013-08-07 08:22:00,81.1,72.0,29.77,South,176,3.0,7.0,73,0.00,,,0.00,weatherlink.com 1.10,2013-08-07 13:22:00,
2013-08-07 08:37:00,81.5,72.0,29.77,SE,144,9.0,9.0,73,0.00,,,0.00,weatherlink.com 1.10,2013-08-07 13:37:00,
2013-08-07 08:52:00,82.9,73.0,29.77,SSW,211,4.0,10.0,72,0.00,,,0.00,weatherlink.com 1.10,2013-08-07 13:52:00,
2013-08-07 09:07:00,84.1,73.0,29.77,SSE,148,8.0,10.0,70,0.00,,,0.00,weatherlink.com 1.10,2013-08-07 14:07:00,
2013-08-07 09:22:00,84.4,73.0,29.77,SSW,211,7.0,12.0,68,0.00,,,0.00,weatherlink.com 1.10,2013-08-07 14:22:00,
2013-08-07 09:37:00,85.2,74.0,29.77,SSW,200,7.0,12.0,68,0.00,,,0.00,weatherlink.com 1.10,2013-08-07 14:37:00,
2013-08-07 09:52:00,85.6,73.0,29.77,South,191,4.0,13.0,66,0.00,,,0.00,weatherlink.com 1.10,2013-08-07 14:52:00,
2013-08-07 10:07:00,85.9,73.0,29.77,SSW,197,6.0,10.0,66,0.00,,,0.00,weatherlink.com 1.10,2013-08-07 15:07:00,
2013-08-07 10:22:00,87.3,74.0,29.77,South,169,4.0,10.0,64,0.00,,,0.00,weatherlink.com 1.10,2013-08-07 15:22:00,
2013-08-07 10:37:00,87.9,74.0,29.77,SSW,196,0.0,11.0,63,0.00,,,0.00,weatherlink.com 1.10,2013-08-07 15:37:00,
2013-08-07 10:53:00,88.3,74.0,29.77,SE,140,5.0,9.0,63,0.00,,,0.00,weatherlink.com 1.10,2013-08-07 15:53:00,
2013-08-07 11:08:00,89.7,74.0,29.77,South,184,2.0,13.0,60,0.00,,,0.00,weatherlink.com 1.10,2013-08-07 16:08:00,
2013-08-07 11:23:00,90.5,72.0,29.76,SW,217,12.0,17.0,55,0.00,,,0.00,weatherlink.com 1.10,2013-08-07 16:23:00,
2013-08-07 11:38:00,91.8,72.0,29.76,SW,224,2.0,11.0,53,0.00,,,0.00,weatherlink.com 1.10,2013-08-07 16:38:00,
2013-08-07 11:53:00,92.3,72.0,29.76,SSW,194,8.0,11.0,52,0.00,,,0.00,weatherlink.com 1.10,2013-08-07 16:53:00,
2013-08-07 12:08:00,93.4,72.0,29.76,South,191,0.0,13.0,50,0.00,,,0.00,weatherlink.com 1.10,2013-08-07 17:08:00,
2013-08-07 12:23:00,94.6,73.0,29.75,SW,216,9.0,14.0,50,0.00,,,0.00,weatherlink.com 1.10,2013-08-07 17:23:00,
2013-08-07 12:38:00,94.5,73.0,29.74,SSW,202,5.0,15.0,50,0.00,,,0.00,weatherlink.com 1.10,2013-08-07 17:38:00,
2013-08-07 12:53:00,95.3,74.0,29.74,South,180,0.0,10.0,50,0.00,,,0.00,weatherlink.com 1.10,2013-08-07 17:53:00,
2013-08-07 13:08:00,96.2,74.0,29.74,South,174,1.0,9.0,49,0.00,,,0.00,weatherlink.com 1.10,2013-08-07 18:08:00,
2013-08-07 13:23:00,96.8,72.0,29.74,SSW,201,0.0,10.0,45,0.00,,,0.00,weatherlink.com 1.10,2013-08-07 18:23:00,
2013-08-07 13:38:00,97.7,72.0,29.74,SSW,213,4.0,5.0,44,0.00,,,0.00,weatherlink.com 1.10,2013-08-07 18:38:00,
2013-08-07 13:53:00,98.7,73.0,29.73,SSE,153,0.0,12.0,44,0.00,,,0.00,weatherlink.com 1.10,2013-08-07 18:53:00,
2013-08-07 14:08:00,99.0,73.0,29.73,SSW,200,7.0,10.0,43,0.00,,,0.00,weatherlink.com 1.10,2013-08-07 19:08:00,
2013-08-07 14:23:00,99.7,71.0,29.73,WSW,240,0.0,8.0,39,0.00,,,0.00,weatherlink.com 1.10,2013-08-07 19:23:00,
2013-08-07 14:38:00,100.0,71.0,29.72,ESE,102,0.0,6.0,39,0.00,,,0.00,weatherlink.com 1.10,2013-08-07 19:38:00,
2013-08-07 14:53:00,101.2,70.0,29.71,WSW,238,4.0,6.0,37,0.00,,,0.00,weatherlink.com 1.10,2013-08-07 19:53:00,
2013-08-07 15:08:00,101.4,70.0,29.71,South,177,7.0,9.0,36,0.00,,,0.00,weatherlink.com 1.10,2013-08-07 20:08:00,
2013-08-07 15:23:00,101.6,71.0,29.71,South,179,0.0,13.0,37,0.00,,,0.00,weatherlink.com 1.10,2013-08-07 20:23:00,
2013-08-07 15:38:00,101.9,70.0,29.70,North,355,0.0,0.0,35,0.00,,,0.00,weatherlink.com 1.10,2013-08-07 20:38:00,
2013-08-07 15:53:00,102.7,70.0,29.70,SSE,155,0.0,4.0,35,0.00,,,0.00,weatherlink.com 1.10,2013-08-07 20:53:00,
2013-08-07 16:08:00,102.9,70.0,29.69,SSW,201,0.0,5.0,35,0.00,,,0.00,weatherlink.com 1.10,2013-08-07 21:08:00,
2013-08-07 16:23:00,102.1,69.0,29.69,SE,137,0.0,0.0,34,0.00,,,0.00,weatherlink.com 1.10,2013-08-07 21:23:00,
2013-08-07 16:38:00,103.0,69.0,29.69,South,178,0.0,7.0,33,0.00,,,0.00,weatherlink.com 1.10,2013-08-07 21:38:00,
2013-08-07 16:53:00,102.1,67.0,29.69,SE,136,0.0,6.0,32,0.00,,,0.00,weatherlink.com 1.10,2013-08-07 21:53:00,
2013-08-07 17:08:00,102.4,68.0,29.68,SE,134,3.0,10.0,33,0.00,,,0.00,weatherlink.com 1.10,2013-08-07 22:08:00,
2013-08-07 17:23:00,102.8,69.0,29.68,South,173,1.0,8.0,34,0.00,,,0.00,weatherlink.com 1.10,2013-08-07 22:23:00,
2013-08-07 17:38:00,102.5,67.0,29.68,SSE,147,0.0,8.0,32,0.00,,,0.00,weatherlink.com 1.10,2013-08-07 22:38:00,
2013-08-07 17:53:00,102.6,68.0,29.67,SE,130,2.0,7.0,33,0.00,,,0.00,weatherlink.com 1.10,2013-08-07 22:53:00,
2013-08-07 18:08:00,102.2,69.0,29.66,SSE,152,5.0,8.0,34,0.00,,,0.00,weatherlink.com 1.10,2013-08-07 23:08:00,
2013-08-07 18:24:00,102.1,70.0,29.66,South,172,1.0,6.0,36,0.00,,,0.00,weatherlink.com 1.10,2013-08-07 23:24:00,
2013-08-07 18:39:00,102.4,70.0,29.66,SSE,161,1.0,3.0,35,0.00,,,0.00,weatherlink.com 1.10,2013-08-07 23:39:00,
2013-08-07 18:54:00,102.0,70.0,29.66,East,96,7.0,10.0,36,0.00,,,0.00,weatherlink.com 1.10,2013-08-07 23:54:00,
2013-08-07 19:09:00,100.3,72.0,29.65,ESE,105,1.0,9.0,40,0.00,,,0.00,weatherlink.com 1.10,2013-08-08 00:09:00,
2013-08-07 19:24:00,98.7,71.0,29.65,ESE,103,0.0,9.0,41,0.00,,,0.00,weatherlink.com 1.10,2013-08-08 00:24:00,
2013-08-07 19:39:00,97.3,72.0,29.65,East,101,0.0,6.0,44,0.00,,,0.00,weatherlink.com 1.10,2013-08-08 00:39:00,
2013-08-07 19:54:00,95.9,72.0,29.65,East,101,0.0,0.0,46,0.00,,,0.00,weatherlink.com 1.10,2013-08-08 00:54:00,
2013-08-07 20:09:00,95.0,72.0,29.65,East,100,6.0,6.0,47,0.00,,,0.00,weatherlink.com 1.10,2013-08-08 01:09:00,
2013-08-07 20:24:00,93.6,72.0,29.66,East,100,0.0,6.0,49,0.00,,,0.00,weatherlink.com 1.10,2013-08-08 01:24:00,
2013-08-07 20:39:00,92.8,72.0,29.67,East,99,0.0,6.0,51,0.00,,,0.00,weatherlink.com 1.10,2013-08-08 01:39:00,
2013-08-07 20:54:00,91.6,72.0,29.67,East,99,0.0,0.0,53,0.00,,,0.00,weatherlink.com 1.10,2013-08-08 01:54:00,
2013-08-07 21:09:00,91.5,71.0,29.67,ESE,108,0.0,7.0,52,0.00,,,0.00,weatherlink.com 1.10,2013-08-08 02:09:00,
2013-08-07 21:24:00,90.5,72.0,29.68,ESE,108,0.0,4.0,55,0.00,,,0.00,weatherlink.com 1.10,2013-08-08 02:24:00,
2013-08-07 21:39:00,89.8,71.0,29.69,ESE,111,0.0,0.0,54,0.00,,,0.00,weatherlink.com 1.10,2013-08-08 02:39:00,
2013-08-07 21:54:00,90.2,70.0,29.69,ESE,120,1.0,7.0,52,0.00,,,0.00,weatherlink.com 1.10,2013-08-08 02:54:00,
2013-08-07 22:09:00,89.6,71.0,29.70,ESE,109,0.0,7.0,54,0.00,,,0.00,weatherlink.com 1.10,2013-08-08 03:09:00,
2013-08-07 22:24:00,89.4,70.0,29.71,ESE,109,0.0,2.0,53,0.00,,,0.00,weatherlink.com 1.10,2013-08-08 03:24:00,
2013-08-07 22:39:00,91.1,69.0,29.71,SSE,150,7.0,12.0,48,0.00,,,0.00,weatherlink.com 1.10,2013-08-08 03:39:00,
2013-08-07 22:54:00,91.1,69.0,29.71,ESE,123,0.0,7.0,48,0.00,,,0.00,weatherlink.com 1.10,2013-08-08 03:54:00,
2013-08-07 23:09:00,89.7,69.0,29.71,SE,132,0.0,5.0,50,0.00,,,0.00,weatherlink.com 1.10,2013-08-08 04:09:00,
2013-08-07 23:24:00,89.2,69.0,29.72,SSE,157,0.0,7.0,51,0.00,,,0.00,weatherlink.com 1.10,2013-08-08 04:24:00,
2013-08-07 23:39:00,88.6,69.0,29.71,SE,129,1.0,9.0,52,0.00,,,0.00,weatherlink.com 1.10,2013-08-08 04:39:00,
2013-08-07 23:54:00,88.6,68.0,29.72,SSE,153,4.0,7.0,51,0.00,,,0.00,weatherlink.com 1.10,2013-08-08 04:54:00,